Terug naar catalogus

METEOR 2-17 DEB

ActiefPO
NORAD 29301·DEBRIS·🇷🇺 Russia

Gelanceerd Jan 30, 1988 vanaf Plesetsk Cosmodrome

Loading…

Volgende Passages (komende 24 uur)

TLE

VersSource: Space-Track

Epoch: Sep 14, 2026, 12:54 UTC

1 29301U 88005Q   26257.53802377  .00000856  00000-0  55541-3 0  9995
2 29301  82.5337 186.5628 0029591  56.1577  68.6928 14.01402797645399

Volg METEOR 2-17 DEB in realtime met AllMySat

Download on the App Store